User: anonymous   Login
Location: Tyler Bend Campground
(35.9875°N, 92.7606°W)
Time: 00:31:27
(UTC-06:00)
Language:

CZ-2C R/B - Orbit

View from above orbital plane
View from above orbital plane
View from above satellite
View from above satellite

Ground track
Ground track

The orbit data is extracted from the following two-line orbital elements,

1 36089U 09061B   17324.91196422  .00000118  00000-0  40872-4 0  9998
2 36089  98.0594 319.8122 0080755 283.2966 133.3696 14.49692860424415
Epoch (UTC): 20 November 2017 21:53:13
Eccentricity: 0.0080755
inclination: 98.0594°
perigee height: 669 km
apogee height: 784 km
right ascension of ascending node: 319.8122°
argument of perigee: 283.2966°
revolutions per day: 14.49692860
mean anomaly at epoch: 133.3696°
orbit number at epoch: 42441

The dashed part of the orbit path shows where the satellite is in the earth's shadow,  

DLR